Wetbulb
52.65 52.29 51.74 51.00 50.63 50.99 50.25 49.85 49.81 50.13 50.38 51.12 51.45 51.74 51.32 51.49 51.91 51.80 52.09 57.87 58.81 59.10 58.09 58.10 58.25 58.43 58.70 58.83 59.51 61.13 63.63 65.76 67.83 69.04 69.17 67.95 67.40 67.22 67.35 67.19 66.89 66.55 66.28
51.56 51.26 50.53 49.96 49.63 49.70 49.65 49.23 48.98 48.84 49.08 50.12 49.78 50.52 50.10 50.51 51.00 51.59 51.94 52.22 57.14 58.43 59.23 58.75 58.15 57.98 58.38 58.96 58.56 58.76 59.94 62.31 64.52 67.23 67.72 68.20 67.08 66.49 66.47 66.51 66.47 66.36 66.33
50.68 50.65 49.23 48.60 48.82 49.49 48.76 48.54 48.21 48.29 48.09 49.43 48.38 48.15 48.84 50.37 50.69 51.32 51.74 53.69 54.10 55.81 56.48 57.23 58.30 58.49 59.31 59.92 59.67 59.64 58.92 60.03 64.49 66.08 66.83 66.79 67.37 66.36 65.85 65.54 66.07 66.18 66.22
49.59 48.61 48.04 47.39 48.91 48.30 47.55 46.72 46.70 46.31 46.94 46.56 46.02 46.31 48.36 49.41 51.18 51.89 51.60 51.77 51.75 52.04 53.93 55.54 56.86 58.27 58.05 58.36 59.13 60.74 60.75 59.55 59.95 62.11 63.74 64.54 66.02 66.85 66.36 65.51 65.25 65.58 65.87
48.32 47.77 46.49 46.44 48.25 46.83 46.30 45.50 45.53 45.70 45.35 45.00 44.86 46.04 47.94 50.34 49.78 49.59 50.89 50.59 50.94 51.09 51.57 53.27 53.90 53.77 53.77 54.40 55.85 57.18 58.65 58.88 59.70 60.70 61.52 62.56 63.57 64.43 66.16 66.29 65.60 65.36 65.40
46.51 46.12 45.77 45.75 46.36 45.25 44.56 44.33 44.17 45.18 45.45 43.93 45.47 46.24 46.73 50.23 46.31 47.40 50.29 49.24 48.06 47.15 46.90 46.75 47.05 47.92 50.08 50.83 52.21 53.89 55.75 57.04 57.87 58.66 59.18 59.74 60.57 61.48 63.37 65.13 66.18 65.78 65.47
45.17 44.09 44.35 44.33 44.50 43.61 43.08 43.29 43.06 42.51 43.18 43.26 42.28 41.81 47.91 44.32 45.22 46.16 46.78 45.77 45.23 45.26 44.97 44.31 43.76 44.14 44.97 47.27 48.47 50.52 52.35 53.96 55.36 56.66 57.14 57.48 58.57 59.01 60.20 62.71 64.79 65.87 65.47
43.37 43.06 43.04 42.99 43.21 42.79 42.37 42.05 41.79 40.02 41.78 42.22 38.07 39.83 39.05 43.06 40.23 44.68 44.72 44.77 43.10 42.85 42.07 42.51 42.38 42.20 42.62 42.55 43.69 46.68 48.18 49.85 52.36 54.24 55.15 55.24 56.45 57.79 59.24 60.74 63.14 65.20 65.77
42.66 42.78 42.32 42.21 42.08 41.87 40.60 40.60 40.32 38.97 37.50 39.57 39.83 37.24 34.55 33.19 35.61 39.81 40.57 42.83 42.33 40.37 39.85 39.90 40.14 40.10 40.60 41.35 41.56 42.29 44.12 45.06 48.71 51.79 53.27 54.55 54.73 55.91 57.82 59.73 61.33 63.61 65.13
40.82 41.76 41.67 41.16 40.91 40.82 39.76 39.67 40.40 38.30 37.69 35.84 37.81 39.47 38.42 38.77 34.87 31.92 37.12 37.75 40.85 39.60 38.67 38.24 38.10 38.94 38.68 39.48 41.26 42.07 42.14 42.80 45.22 48.50 50.52 51.94 52.91 53.42 55.93 56.27 59.05 61.91 64.25
40.36 40.03 40.30 39.81 39.18 38.91 39.46 39.19 38.37 37.51 37.50 35.57 35.24 34.81 34.70 38.97 34.30 33.08 30.46 32.20 35.86 39.71 39.15 38.05 36.75 37.83 37.19 38.05 38.86 39.88 41.00 41.31 42.73 45.11 47.19 48.72 50.19 51.36 52.36 54.18 57.57 59.12 60.82
38.77 39.09 39.63 38.72 38.37 38.11 37.72 37.79 38.44 37.68 37.18 35.92 35.44 34.45 34.30 32.63 31.40 31.74 30.36 31.26 31.74 36.98 39.38 38.73 37.69 37.67 37.57 37.49 38.90 39.43 40.14 40.34 41.00 42.41 44.14 45.39 46.77 48.20 49.23 50.72 52.54 55.03 56.51
37.24 36.71 37.83 36.94 36.68 37.17 37.47 37.83 37.09 37.61 37.08 35.78 35.17 34.12 34.70 33.69 33.95 32.46 31.08 30.14 31.13 37.62 38.69 38.81 37.27 37.83 38.45 37.41 37.03 37.89 38.84 38.41 39.18 40.24 41.48 42.60 43.42 44.44 45.84 46.92 48.21 49.51 52.24
36.40 37.26 36.63 36.65 36.50 36.87 37.08 37.36 36.30 35.81 36.01 35.79 34.81 35.02 33.68 34.26 33.98 33.15 32.82 31.80 30.16 33.09 37.63 35.24 37.44 35.95 37.28 38.04 38.44 37.79 36.31 37.46 37.70 38.18 39.05 39.87 40.94 41.50 42.41 43.65 44.49 45.72 47.51
37.12 36.41 36.18 35.44 35.88 35.74 36.18 35.68 34.55 34.74 34.80 34.56 34.19 33.87 33.76 33.96 33.98 34.91 34.68 34.40 31.96 28.53 31.61 34.00 33.24 36.11 35.35 36.28 38.76 37.84 36.11 37.60 36.89 36.73 36.85 37.41 38.44 39.37 39.85 40.84 41.84 42.78 43.70
36.30 35.75 35.08 34.73 34.72 34.28 34.08 33.68 33.34 33.11 32.97 33.14 33.04 32.40 32.33 32.73 31.84 32.94 33.58 33.96 33.56 31.43 29.84 33.87 32.77 33.60 34.94 34.00 36.45 37.77 37.03 37.45 36.58 36.15 35.41 35.66 36.01 36.74 37.48 38.01 38.96 40.11 41.11
35.35 35.00 34.41 33.25 32.56 32.81 32.21 30.85 30.45 30.96 29.91 29.67 29.96 29.60 30.02 31.41 30.24 30.18 30.63 30.92 31.75 30.35 28.80 31.47 32.86 32.87 32.42 29.85 32.67 35.80 37.06 34.90 34.99 35.83 35.23 34.44 34.01 34.02 34.64 35.48 35.94 37.05 38.29
34.40 33.70 32.99 32.00 31.02 30.32 30.24 30.02 28.82 28.65 27.98 26.98 26.80 26.44 26.76 29.49 28.25 28.41 28.43 28.12 29.16 31.55 29.48 28.80 31.15 30.27 28.91 28.51 30.93 31.48 34.49 35.56 33.55 35.61 34.60 33.64 32.61 32.06 32.01 32.88 33.69 34.86 35.50
31.53 31.00 31.04 29.84 28.97 28.22 27.78 27.92 28.75 28.02 26.61 22.60 23.69 21.55 21.47 23.85 23.14 25.53 25.63 25.34 26.85 30.86 29.86 26.30 24.36 27.25 25.67 26.56 28.15 29.67 32.07 32.09 32.74 32.92 34.21 33.96 32.94 32.09 31.12 31.02 31.76 32.55 33.65
29.22 27.30 27.08 26.56 25.76 26.78 28.07 28.34 27.51 24.57 23.29 21.73 20.98 21.30 19.42 18.15 17.67 19.98 20.78 19.42 23.41 25.88 26.33 25.13 22.87 22.06 20.98 22.89 24.55 24.46 26.21 30.17 26.56 28.30 31.08 32.41 33.29 31.32 30.81 30.01 30.22 30.90 31.40
29.78 28.22 28.18 29.33 28.75 29.27 30.66 29.39 29.38 26.84 25.42 24.62 22.58 23.37 24.77 25.33 27.12 25.11 22.42 18.60 18.32 20.49 20.56 21.34 18.61 17.43 17.60 16.98 17.26 20.91 22.00 25.42 24.46 22.95 24.30 29.29 29.65 27.75 26.98 28.62 28.89 29.74 30.12
29.76 30.30 29.92 30.63 29.99 30.27 28.31 29.41 31.04 29.24 29.40 28.30 26.88 25.68 25.11 25.97 25.92 26.71 26.19 25.84 22.78 17.81 18.50 18.60 16.93 13.99 11.47 15.50 17.76 18.96 20.43 19.70 20.05 23.76 18.67 26.43 27.60 25.74 26.33 26.73 29.81 29.04 29.19
31.27 31.51 31.76 31.55 28.04 26.95 27.94 28.91 29.80 29.70 28.07 27.31 26.82 25.43 25.17 25.26 24.52 24.36 26.12 27.13 25.35 24.62 22.95 20.22 17.21 14.48 14.15 17.54 18.66 18.76 20.31 21.84 20.25 17.34 17.93 23.98 24.75 23.29 30.71 28.93 29.68 29.40 28.61
32.11 31.97 31.94 31.22 27.75 26.96 27.16 28.07 28.55 29.02 26.87 25.82 25.26 25.25 23.19 21.41 22.72 23.49 24.34 23.22 22.03 21.97 22.14 22.42 20.54 20.31 21.24 21.22 20.58 20.71 20.31 21.84 22.55 19.22 18.70 16.71 23.49 20.64 28.30 27.37 29.81 29.27 28.99
31.82 31.59 31.72 30.00 26.04 24.79 26.76 27.73 27.72 27.51 26.72 24.77 24.02 23.00 22.43 20.54 23.27 24.97 22.34 21.91 21.16 21.32 25.77 26.87 26.06 25.82 26.08 25.74 24.28 19.91 17.61 17.61 16.70 17.43 16.46 16.52 19.93 19.23 24.66 24.18 25.84 28.17 28.58
31.40 30.64 30.30 29.67 29.23 24.79 26.30 27.32 28.01 27.14 26.06 26.12 22.81 22.28 23.27 21.14 22.06 22.40 19.65 18.56 17.36 17.93 19.91 22.44 22.99 23.71 23.53 22.18 23.83 21.40 18.33 16.47 15.32 14.80 16.09 13.80 16.20 17.20 13.77 22.17 26.36 23.36 23.65
MSLP
1017.79 1017.80 1017.98 1018.01 1018.03 1017.92 1017.87 1017.65 1017.56 1017.23 1016.93 1016.70 1016.53 1016.29 1016.22 1016.14 1015.95 1015.58 1015.40 1015.20 1015.02 1014.86 1014.77 1014.67 1014.61 1014.72 1014.62 1014.57 1014.16 1013.96 1013.85 1013.43 1013.17 1012.92 1012.90 1013.04 1013.36 1013.68 1013.97 1014.36 1014.74 1015.17 1015.61
1018.20 1018.25 1018.36 1018.34 1018.34 1018.20 1018.04 1017.89 1017.68 1017.43 1017.11 1016.81 1016.71 1016.54 1016.47 1016.15 1015.93 1015.76 1015.67 1015.48 1014.97 1014.87 1014.66 1014.68 1014.47 1014.56 1014.52 1014.28 1014.15 1013.88 1013.59 1013.40 1013.14 1012.78 1012.38 1012.45 1012.66 1012.96 1013.24 1013.66 1014.05 1014.46 1014.86
1018.59 1018.45 1018.76 1018.90 1018.66 1018.32 1018.23 1018.05 1017.82 1017.54 1017.37 1016.88 1016.95 1016.78 1016.45 1016.11 1016.00 1015.85 1015.85 1015.98 1015.74 1015.48 1015.49 1015.38 1015.11 1014.85 1014.59 1014.06 1014.06 1013.76 1013.53 1013.23 1012.87 1012.75 1012.54 1012.27 1012.19 1012.42 1012.69 1012.96 1013.25 1013.64 1014.13
1018.96 1018.99 1019.09 1019.27 1018.92 1018.65 1018.52 1018.29 1018.16 1017.92 1017.67 1017.49 1017.36 1016.99 1016.58 1016.20 1015.87 1015.99 1016.00 1016.56 1016.46 1016.08 1015.96 1015.97 1015.74 1015.44 1015.35 1015.14 1014.69 1014.00 1013.46 1013.10 1012.83 1012.66 1012.53 1012.48 1012.11 1011.99 1012.16 1012.34 1012.55 1012.82 1013.15
1019.32 1019.09 1019.39 1019.58 1019.09 1019.05 1019.04 1019.01 1018.76 1018.48 1018.08 1017.89 1017.59 1016.79 1016.57 1016.59 1016.67 1016.75 1016.85 1016.75 1017.03 1016.71 1016.40 1016.63 1016.75 1016.61 1016.46 1016.26 1015.67 1015.12 1014.46 1013.95 1013.55 1013.14 1012.87 1012.58 1012.23 1011.91 1011.62 1011.71 1011.98 1012.27 1012.49
1019.62 1019.37 1019.51 1019.73 1019.32 1019.54 1019.70 1019.68 1019.47 1019.05 1018.59 1018.56 1017.88 1017.03 1016.66 1016.85 1017.26 1017.21 1017.09 1017.74 1018.26 1018.48 1018.24 1018.02 1017.92 1017.76 1017.49 1017.32 1016.65 1016.04 1015.34 1014.81 1014.29 1013.64 1013.16 1012.72 1012.39 1012.00 1011.64 1011.37 1011.29 1011.47 1011.68
1020.02 1020.04 1019.82 1019.89 1019.87 1020.05 1020.28 1020.25 1020.02 1019.70 1019.32 1019.13 1018.36 1017.86 1016.99 1017.47 1017.72 1017.72 1018.07 1018.76 1019.20 1019.32 1019.21 1019.18 1018.84 1018.80 1018.42 1018.13 1017.70 1017.14 1016.40 1015.71 1014.94 1014.16 1013.53 1012.91 1012.34 1012.02 1011.69 1011.29 1010.92 1010.72 1010.87
1020.39 1020.42 1020.32 1020.43 1020.51 1020.54 1020.73 1020.80 1020.66 1020.59 1020.03 1019.97 1019.88 1019.10 1018.43 1018.33 1018.92 1018.77 1018.94 1019.33 1019.95 1020.13 1020.19 1020.22 1019.76 1019.50 1019.12 1019.05 1018.64 1017.94 1017.37 1016.55 1015.58 1014.60 1013.76 1013.10 1012.32 1011.74 1011.20 1010.89 1010.50 1010.13 1010.17
1020.82 1020.51 1020.75 1020.86 1020.98 1021.08 1021.30 1021.22 1021.13 1021.25 1021.17 1020.89 1020.72 1020.50 1020.32 1020.53 1020.38 1019.76 1019.80 1019.88 1020.41 1020.91 1021.06 1021.08 1020.78 1020.36 1019.99 1019.59 1019.29 1018.70 1018.00 1017.13 1016.24 1015.12 1014.18 1013.37 1012.55 1011.72 1010.87 1010.30 1010.02 1009.72 1009.55
1021.06 1021.01 1021.29 1021.30 1021.45 1021.61 1021.81 1021.69 1021.67 1021.64 1021.64 1021.76 1021.42 1021.30 1021.50 1021.39 1021.71 1021.32 1020.70 1020.81 1020.99 1021.23 1021.66 1021.77 1021.64 1021.04 1020.86 1020.50 1020.00 1019.40 1018.77 1017.90 1017.08 1015.92 1014.92 1013.97 1013.10 1012.15 1011.24 1010.64 1009.75 1009.25 1009.00
1021.27 1021.56 1021.72 1021.89 1021.90 1021.93 1021.92 1022.16 1022.18 1022.21 1022.11 1022.28 1022.24 1022.29 1022.32 1022.09 1022.91 1022.88 1022.14 1022.06 1021.70 1021.86 1022.03 1022.04 1022.02 1021.78 1021.77 1021.28 1020.63 1020.01 1019.40 1018.49 1017.78 1016.85 1015.82 1014.80 1013.84 1012.86 1011.95 1011.02 1009.90 1009.10 1008.70
1021.44 1021.91 1022.01 1022.22 1022.30 1022.31 1022.32 1022.44 1022.28 1022.41 1022.48 1022.69 1022.74 1023.13 1023.49 1023.58 1023.77 1023.75 1023.42 1022.93 1022.38 1021.68 1021.78 1021.81 1021.80 1022.00 1022.00 1021.77 1021.30 1020.77 1020.18 1019.39 1018.56 1017.78 1016.84 1015.75 1014.81 1013.89 1012.87 1011.84 1010.77 1009.76 1008.85
1021.51 1021.92 1022.26 1022.78 1022.88 1022.83 1022.54 1022.34 1022.66 1022.85 1022.97 1023.04 1023.21 1023.64 1024.01 1024.15 1024.30 1024.41 1024.03 1023.49 1022.60 1021.64 1021.77 1022.03 1022.06 1022.14 1021.97 1021.87 1021.53 1021.20 1020.64 1020.03 1019.52 1018.83 1017.92 1016.84 1015.82 1014.97 1013.99 1012.92 1011.75 1010.76 1009.69
1022.14 1022.24 1022.55 1022.90 1023.13 1022.92 1022.75 1022.91 1023.06 1023.20 1023.31 1023.47 1023.67 1023.61 1023.96 1024.41 1024.68 1024.66 1024.38 1023.78 1022.87 1022.07 1022.03 1022.38 1022.29 1022.68 1022.33 1022.08 1021.77 1021.61 1021.19 1020.36 1019.91 1019.58 1019.01 1018.03 1016.88 1015.96 1015.10 1013.98 1012.98 1011.95 1010.97
1022.14 1022.39 1022.78 1023.14 1023.25 1023.29 1023.26 1023.53 1023.66 1023.55 1023.70 1024.03 1024.10 1024.04 1024.09 1024.30 1024.49 1024.54 1024.24 1023.87 1023.62 1023.12 1022.72 1022.83 1022.93 1022.98 1022.82 1022.52 1022.09 1021.93 1021.48 1020.75 1020.38 1020.06 1019.61 1018.90 1017.93 1016.93 1015.97 1014.96 1013.88 1012.82 1011.91
1022.22 1022.70 1023.14 1023.48 1023.60 1023.93 1024.11 1024.01 1024.19 1024.37 1024.49 1024.58 1024.85 1024.88 1024.80 1024.59 1024.50 1024.27 1024.09 1024.12 1024.12 1024.03 1023.58 1023.54 1023.59 1023.49 1023.16 1022.87 1022.30 1021.96 1021.63 1021.22 1020.82 1020.59 1020.24 1019.61 1018.72 1017.91 1017.06 1016.02 1015.12 1014.16 1013.35
1022.61 1023.12 1023.61 1024.08 1024.43 1024.57 1024.78 1025.09 1025.21 1025.26 1025.55 1025.82 1025.87 1025.88 1025.50 1025.28 1025.19 1024.91 1024.57 1024.33 1024.10 1024.18 1024.14 1023.96 1023.86 1023.65 1023.47 1023.36 1022.68 1022.02 1021.78 1021.55 1021.35 1020.98 1020.68 1020.25 1019.52 1018.76 1018.11 1017.24 1016.43 1015.59 1014.56
1023.13 1023.54 1024.12 1024.70 1025.17 1025.45 1025.56 1025.62 1025.93 1026.39 1026.70 1027.00 1026.95 1026.67 1026.52 1026.32 1026.06 1025.87 1025.57 1025.22 1024.88 1024.33 1024.33 1024.17 1024.12 1024.22 1024.15 1023.88 1023.07 1022.49 1021.82 1021.57 1021.37 1021.07 1020.85 1020.56 1020.20 1019.70 1019.00 1018.22 1017.38 1016.57 1015.76
1024.19 1024.51 1024.89 1025.40 1025.76 1026.00 1026.18 1026.20 1026.63 1027.18 1027.48 1027.46 1027.32 1027.36 1027.37 1027.07 1026.88 1026.61 1026.53 1026.32 1025.88 1025.22 1024.93 1024.87 1025.05 1024.96 1025.08 1024.65 1023.72 1022.95 1022.25 1022.09 1021.80 1021.54 1021.31 1020.83 1020.62 1020.36 1019.88 1019.19 1018.31 1017.57 1016.99
1025.16 1025.34 1025.68 1025.94 1026.25 1026.39 1026.44 1026.69 1027.28 1027.57 1027.55 1027.45 1027.55 1027.68 1027.65 1027.54 1027.37 1027.22 1027.22 1027.11 1026.72 1026.12 1025.84 1025.66 1025.87 1026.03 1026.09 1025.58 1024.74 1024.06 1022.99 1022.62 1022.60 1022.15 1021.83 1021.28 1020.94 1021.07 1020.75 1020.14 1019.25 1018.55 1017.92
1025.23 1025.40 1025.66 1026.16 1026.24 1026.44 1026.50 1026.83 1027.19 1027.36 1027.18 1027.33 1027.57 1027.53 1027.57 1027.47 1027.31 1027.38 1027.44 1027.58 1027.38 1027.18 1026.84 1026.60 1026.87 1026.91 1026.86 1026.42 1025.86 1025.07 1024.02 1023.04 1023.13 1022.88 1022.45 1021.77 1021.22 1021.52 1021.29 1020.63 1020.23 1019.69 1019.08
1024.82 1024.95 1025.46 1025.77 1026.01 1026.03 1026.71 1026.76 1026.55 1026.76 1026.70 1026.82 1027.08 1027.31 1027.49 1027.80 1027.52 1027.41 1027.49 1027.64 1027.99 1028.01 1027.86 1027.63 1027.79 1027.91 1027.67 1027.44 1026.69 1025.79 1024.64 1023.81 1023.39 1023.53 1023.26 1022.52 1021.93 1021.77 1021.65 1021.21 1020.65 1020.29 1019.60
1023.94 1024.28 1024.71 1025.10 1025.79 1026.35 1026.68 1026.74 1026.57 1026.30 1026.66 1026.87 1027.10 1027.35 1027.57 1027.97 1028.01 1027.91 1027.74 1027.33 1027.82 1028.19 1028.33 1028.16 1028.26 1028.27 1027.97 1027.69 1027.05 1025.97 1025.17 1024.56 1024.68 1025.10 1024.03 1023.17 1022.75 1022.41 1021.72 1021.43 1021.00 1020.52 1020.15
1023.16 1023.64 1024.15 1024.82 1025.83 1026.56 1026.79 1026.75 1026.71 1026.23 1026.99 1027.41 1027.68 1027.80 1028.18 1028.70 1028.68 1028.38 1027.65 1027.67 1028.05 1028.25 1028.37 1028.31 1028.38 1028.29 1027.98 1027.72 1027.37 1026.64 1025.91 1025.04 1024.95 1025.19 1025.02 1024.38 1023.52 1022.97 1022.05 1021.47 1021.22 1020.93 1020.69
1022.91 1023.47 1024.02 1024.86 1025.94 1026.77 1026.98 1026.93 1026.78 1026.59 1027.10 1027.76 1028.38 1028.68 1028.80 1029.20 1028.99 1028.66 1028.28 1028.27 1028.42 1028.65 1028.28 1028.00 1027.98 1027.86 1027.71 1027.54 1027.36 1027.18 1026.45 1025.84 1025.45 1025.93 1025.85 1025.52 1024.64 1023.71 1022.58 1022.02 1021.85 1021.58 1021.21
1022.82 1023.52 1024.16 1024.89 1025.92 1026.84 1027.02 1027.07 1026.88 1026.63 1027.10 1027.73 1028.63 1029.10 1029.27 1029.54 1029.50 1029.42 1029.26 1029.31 1029.40 1029.54 1029.21 1028.52 1028.16 1028.03 1027.99 1027.98 1027.74 1027.73 1027.61 1027.13 1026.87 1026.35 1026.46 1026.45 1025.72 1025.01 1023.82 1022.56 1022.26 1022.13 1021.89
Wind_Speed
3 4 3 4 4 4 4 4 4 5 5 6 6 6 6 6 6 4 3 11 12 13 14 15 15 15 16 17 17 18 20 19 17 17 15 16 17 18 18 18 18 18 18
4 4 4 5 4 4 4 4 4 4 4 4 5 6 6 6 6 6 4 5 10 10 12 16 13 13 15 18 18 18 18 20 19 18 16 14 17 18 19 19 19 19 20
4 4 4 4 4 3 5 4 5 5 5 5 6 6 5 5 5 5 5 8 10 19 20 23 22 15 17 17 18 18 18 18 16 16 15 13 14 16 17 19 20 21 21
6 5 4 4 5 4 4 5 5 5 5 5 5 5 4 5 4 5 6 7 6 6 10 17 22 24 26 28 28 28 17 15 17 19 17 16 14 15 17 19 20 22 23
6 4 4 4 5 5 5 6 5 5 5 5 8 5 4 4 9 7 9 6 14 11 9 20 24 27 26 27 27 27 26 23 21 19 18 20 16 15 13 18 19 21 22
6 6 5 5 5 5 6 5 6 5 4 7 8 6 5 7 5 5 7 12 13 14 13 15 13 13 24 26 28 29 28 26 23 21 20 20 20 20 17 13 18 21 23
6 6 4 5 6 5 6 6 5 7 5 8 4 6 4 10 8 6 8 10 13 12 13 12 9 9 10 23 28 29 29 27 25 23 21 20 18 17 19 17 16 19 23
6 6 6 5 6 4 6 6 6 5 4 7 5 4 4 1 8 6 8 8 11 10 12 13 13 13 11 10 20 28 30 29 27 25 23 21 20 19 17 19 18 16 21
6 6 6 5 5 5 4 5 6 7 4 5 8 4 4 4 5 5 8 9 8 9 9 10 12 13 13 10 14 20 30 29 28 26 24 23 21 22 19 18 19 19 17
6 6 6 6 6 4 5 5 6 4 5 5 3 7 6 3 4 5 5 10 7 8 9 8 10 11 12 9 16 25 28 27 27 26 26 25 23 23 22 23 21 18 19
7 6 6 6 5 4 4 5 6 6 5 4 5 5 6 3 8 3 4 7 6 6 6 6 9 8 11 10 9 16 27 27 28 28 28 27 27 26 26 25 22 17 15
5 6 6 5 5 5 5 4 5 6 5 5 4 5 5 4 4 3 3 7 6 2 4 4 6 5 6 7 13 18 25 27 27 28 29 28 29 28 27 27 27 25 21
5 5 6 6 4 4 4 5 5 6 5 4 4 4 5 5 4 4 4 5 3 3 2 5 6 7 7 5 9 16 21 24 26 28 29 29 29 29 29 28 29 29 27
5 6 6 5 5 5 5 5 4 4 5 5 7 4 5 4 4 4 3 4 4 3 2 5 6 7 7 7 10 14 8 22 24 26 27 29 29 30 29 29 30 29 28
6 6 6 6 5 6 5 6 4 5 6 5 6 6 4 3 4 2 3 4 4 4 3 6 5 8 7 7 10 6 5 16 22 24 26 27 29 30 31 31 31 32 31
6 6 6 6 6 7 7 7 6 7 7 6 6 7 5 4 5 2 3 3 4 4 3 5 5 6 7 8 11 6 7 11 19 20 23 26 28 29 30 32 32 31 31
6 6 6 7 6 6 7 8 8 8 9 8 7 7 8 9 6 6 5 4 2 3 4 4 4 6 7 9 9 7 5 4 5 18 20 23 26 28 29 29 31 31 31
6 7 7 7 7 7 7 7 8 8 7 7 7 8 9 8 9 9 7 8 7 5 3 6 5 6 8 10 9 8 5 6 4 13 17 19 23 26 27 28 29 30 31
8 9 7 7 8 6 6 7 7 6 5 3 5 5 5 7 7 6 7 7 7 6 5 3 3 4 6 9 9 8 7 5 7 16 16 14 17 22 25 27 28 29 29
6 6 5 5 4 4 5 6 4 3 3 3 3 4 4 4 4 5 5 6 7 5 6 3 4 5 6 9 6 7 7 3 4 8 11 13 12 18 21 23 27 28 28
8 6 6 6 4 4 4 6 5 4 5 5 3 3 4 6 11 10 5 4 6 6 4 4 4 3 7 8 9 7 5 5 2 7 4 5 4 5 8 14 19 25 26
9 9 9 8 6 6 5 4 2 4 4 6 6 6 7 11 4 9 13 16 13 7 7 5 4 4 4 7 8 9 5 5 2 7 4 4 6 3 3 6 21 24 24
10 9 9 8 8 6 4 5 10 5 5 6 7 6 7 8 11 8 2 12 14 15 9 6 5 4 3 8 10 11 11 10 4 6 4 2 7 7 2 4 21 21 23
7 6 7 10 9 5 4 7 10 6 7 9 9 8 9 8 10 10 6 5 7 5 4 4 4 4 4 5 8 10 11 8 3 7 10 4 5 7 5 2 20 21 22
6 6 6 11 9 5 4 7 10 6 7 9 8 8 8 8 15 18 8 7 7 7 10 11 5 6 11 13 13 7 9 9 6 3 9 5 7 9 3 3 6 20 20
6 6 6 9 14 6 5 6 8 2 5 6 9 9 13 9 13 14 8 8 7 6 8 6 4 5 8 9 11 4 4 7 7 4 5 6 6 7 5 4 3 4 7
Wind_Direction
41 42 22 37 35 25 6 358 4 338 342 349 330 340 349 328 324 316 326 324 341 339 326 316 320 324 320 314 306 303 303 307 303 257 231 220 217 210 208 208 203 200 202
3 59 35 43 18 40 358 4 339 345 334 338 348 358 334 318 328 333 346 330 314 325 328 339 322 321 327 321 317 306 298 300 306 305 260 230 220 216 211 208 205 203 202
37 49 58 32 355 9 16 1 1 356 337 349 357 336 314 324 333 341 347 21 9 22 29 14 17 354 337 330 327 323 309 299 301 308 300 275 239 226 220 214 209 205 203
359 46 53 27 325 10 34 5 3 1 335 2 348 307 336 319 327 25 31 40 3 357 22 7 7 36 35 28 24 14 356 330 305 305 309 311 295 244 230 223 218 214 204
8 65 48 20 334 21 34 11 353 3 337 353 331 315 321 19 36 11 45 32 19 11 19 21 29 34 30 24 20 15 10 3 356 350 343 340 328 301 262 234 227 223 217
36 11 65 39 355 41 26 12 350 341 12 358 317 326 297 74 35 0 43 48 39 32 32 33 19 20 21 21 18 16 11 6 358 347 337 332 324 318 316 286 240 227 222
36 22 29 48 1 57 28 17 340 349 10 355 355 328 68 71 30 38 52 48 38 36 32 30 29 17 15 22 18 15 11 6 359 352 349 338 332 311 299 295 280 240 231
34 61 29 38 25 26 43 24 4 358 10 19 358 285 7 170 25 14 44 72 57 42 30 28 27 23 20 21 21 16 11 6 2 356 352 344 339 322 312 285 279 271 238
58 53 43 45 26 35 26 35 12 36 346 19 38 35 7 4 333 20 21 42 55 50 32 23 20 22 15 19 19 16 12 8 4 2 359 357 352 349 340 315 282 271 256
67 50 55 45 40 51 33 23 34 26 16 27 28 16 46 17 12 332 346 20 3 64 46 29 22 21 14 10 16 16 14 14 7 10 10 8 6 4 356 353 345 287 265
64 61 48 48 41 43 48 31 52 26 47 32 41 14 18 74 48 315 314 345 341 81 68 47 35 22 18 10 9 13 15 18 15 15 15 15 14 14 12 3 359 335 328
87 48 54 67 48 43 25 36 47 54 44 55 51 53 47 33 20 6 309 335 316 23 96 60 44 34 28 13 13 21 20 19 19 18 18 21 20 19 18 16 15 9 5
89 73 70 46 40 45 29 55 44 51 58 48 64 90 62 52 29 11 357 345 299 65 24 85 48 22 16 20 16 28 21 27 25 20 19 22 24 22 22 23 22 17 13
91 92 85 70 58 39 51 33 50 67 48 60 36 60 105 80 41 25 347 342 346 350 95 23 60 23 9 4 10 18 7 29 28 26 23 22 24 25 24 25 27 26 22
121 91 87 84 67 50 28 85 41 38 52 61 38 32 34 130 133 105 10 15 4 356 353 33 19 18 7 356 351 359 5 22 28 26 25 23 25 25 25 25 26 27 26
95 96 83 77 75 63 38 38 56 40 38 33 39 30 28 19 18 54 95 42 46 4 335 36 25 9 3 353 351 3 354 16 25 27 24 23 24 26 26 26 26 27 27
101 101 96 79 53 53 81 64 41 44 56 30 37 31 25 23 35 7 10 5 48 96 3 350 17 6 8 354 344 353 2 20 17 29 27 24 24 24 25 26 26 25 26
97 94 89 83 85 69 31 91 80 57 50 63 41 46 30 35 28 24 18 8 2 343 15 2 14 25 9 356 339 352 4 4 7 21 27 27 29 27 24 25 27 25 25
54 62 73 96 100 92 70 50 72 85 81 64 68 61 42 35 25 33 27 11 354 347 360 37 356 33 10 358 345 350 349 9 12 10 11 22 36 29 28 25 25 26 26
114 109 102 95 87 91 104 93 96 120 133 102 94 102 76 55 43 32 36 14 353 1 1 26 24 17 14 352 341 339 343 41 6 17 359 8 36 37 29 31 27 26 23
138 128 119 131 141 138 135 140 151 187 165 144 155 107 118 80 75 70 65 36 19 10 359 17 27 10 8 359 353 326 312 317 85 22 342 354 359 57 27 26 31 26 26
154 151 153 161 200 128 108 52 83 142 97 118 127 95 91 38 62 94 87 75 66 34 15 23 29 16 352 357 337 331 326 340 1 18 330 0 5 21 12 23 35 28 26
172 169 161 145 111 122 103 47 358 122 94 80 71 78 65 48 18 8 195 91 71 52 33 30 30 11 360 358 342 338 346 337 75 346 348 317 20 350 10 39 32 33 24
166 154 154 123 112 120 73 19 351 125 82 59 45 50 71 50 21 1 333 75 83 73 63 38 42 359 15 2 0 347 343 343 140 47 11 355 354 344 329 350 35 25 27
152 146 131 122 119 126 80 14 348 115 122 111 84 59 56 51 26 11 20 21 43 22 4 8 15 15 18 20 24 4 3 5 347 52 21 335 352 337 302 16 36 31 20
136 119 110 96 120 121 90 20 351 97 108 117 125 97 72 62 42 34 38 28 26 351 325 316 336 26 25 17 18 51 353 10 356 346 15 356 341 350 334 13 354 32 8